Home > Weather > Meppen > Past weeks

Flag for Germany Weather for the Past 2 Weeks in Meppen, Lower Saxony, Germany

Now
45 °F

Quite cool.


Feels Like: 38 °F
Forecast: 40 / 44 °F
Wind: 15 mph from South

Location: Meppen-Mil

Current Time: Feb 8, 2016 at 4:27:02 AM

Latest Report: Feb 8, 2016 at 3:20 AM


Visibility: 5 mi

Pressure: 29.30 "Hg

Humidity: 71%

Dew point: 36 °F

Location of MeppenLocation

Historic Weather in Meppen — Graph

°F

Meppen Temperature Yesterday

Maximum temperature yesterday: 52 °F (at 7:20 AM)
Minimum temperature yesterday: 45 °F (at 8:20 PM)
Average temperature yesterday: 48 °F

High & Low Weather Summary for the Past Weeks

 TemperatureHumidityPressure
High57 °F (Jan 25, 3:20 PM)100% (Jan 24, 9:20 PM)30.45 "Hg (Jan 24, 9:20 PM)
Low37 °F (Jan 30, 5:20 PM)54% (Feb 2, 12:20 PM)29.33 "Hg (Feb 8, 2:20 AM)
Average46 °F80%29.94 "Hg
* Reported Jan 24 2:20 AM — Feb 8 2:20 AM, Meppen, Weather by CustomWeather, © 2016

Note: Actual official high and low records may vary slightly from our data, if they occured in-between our weather recording intervals... More about our weather records

Advertising

Meppen Weather History for the Previous 24 Hours

 ConditionsComfort  
Time TempWeatherWind HumidityBarometerVisibility
2:20 AM
Mon, Feb 8
43 °FQuite cool.14 mph76%29.33 "HgN/A
1:20 AM45 °FQuite cool.13 mph66%29.39 "HgN/A
12:20 AM45 °FQuite cool.13 mph61%29.42 "HgN/A
11:20 PM
Sun, Feb 7
45 °FQuite cool.12 mph61%29.47 "HgN/A
10:20 PM45 °FQuite cool.10 mph61%29.47 "HgN/A
9:20 PM45 °FQuite cool.13 mph61%29.50 "HgN/A
8:20 PM45 °FQuite cool.10 mph66%29.50 "HgN/A
7:20 PM46 °FCool.13 mph62%29.50 "HgN/A
6:20 PM46 °FCool.10 mph62%29.50 "HgN/A
5:20 PM48 °FCool.12 mph58%29.50 "HgN/A
4:20 PM50 °FCool.12 mph58%29.50 "HgN/A
3:20 PM48 °FCool.12 mph66%29.47 "HgN/A
2:20 PM48 °FCool.13 mph66%29.47 "HgN/A
1:20 PM50 °FCool.14 mph62%29.45 "HgN/A
12:20 PM50 °FCool.13 mph67%29.45 "HgN/A
11:20 AM50 °FCool.10 mph71%29.45 "HgN/A
10:20 AM50 °FCool.10 mph67%29.42 "HgN/A
9:20 AM52 °FCool.13 mph62%29.39 "HgN/A
8:20 AM52 °FCool.12 mph62%29.39 "HgN/A
7:20 AM52 °FCool.9 mph62%29.39 "HgN/A
6:20 AM50 °FCool.8 mph67%29.39 "HgN/A
5:20 AM48 °FCool.8 mph71%29.39 "HgN/A
4:20 AM48 °FCool.9 mph66%29.42 "HgN/A
Weather by CustomWeather, © 2016

See weather overviewHow to use our weather pages